Time,TemperatureF,DewpointF,PressureIn,WindDirection,WindDirectionDegrees,WindSpeedMPH,WindSpeedGustMPH,Humidity,HourlyPrecipIn,Conditions,Clouds,dailyrainin,SoftwareType,DateUTC
2013-03-19 00:07:00,25.4,5.3,30.06,South,180,0.0,1.3,37,0.00,,,0.00,WSDL version 420,2013-03-19 04:07:00,
2013-03-19 00:22:00,25.3,6.0,30.03,South,180,0.0,1.6,38,-99.99,,,-99.99,WSDL version 420,2013-03-19 04:22:00,
2013-03-19 00:37:00,25.5,5.8,30.03,ESE,109,0.7,4.3,38,0.00,,,0.00,WSDL version 420,2013-03-19 04:37:00,
2013-03-19 00:52:00,25.5,5.8,30.03,ESE,106,2.5,3.8,38,0.00,,,0.00,WSDL version 420,2013-03-19 04:52:00,
2013-03-19 01:08:00,25.9,5.8,30.03,North,9,1.9,3.4,37,0.00,,,0.00,WSDL version 420,2013-03-19 05:08:00,
2013-03-19 01:23:00,26.1,5.7,30.06,ENE,77,3.8,5.8,37,-99.99,,,-99.99,WSDL version 420,2013-03-19 05:23:00,
2013-03-19 01:38:00,26.4,5.5,30.00,East,94,3.4,7.2,36,0.00,,,0.00,WSDL version 420,2013-03-19 05:38:00,
2013-03-19 01:53:00,26.3,5.7,30.00,ENE,73,2.8,4.9,37,0.00,,,0.00,WSDL version 420,2013-03-19 05:53:00,
2013-03-19 02:08:00,26.1,5.7,30.03,ESE,113,2.2,3.4,37,-99.99,,,-99.99,WSDL version 420,2013-03-19 06:08:00,
2013-03-19 02:23:00,26.2,5.9,30.00,ENE,77,3.5,10.5,37,-99.99,,,-99.99,WSDL version 420,2013-03-19 06:23:00,
2013-03-19 02:38:00,26.5,7.8,30.00,East,93,7.5,13.0,41,0.00,,,0.00,WSDL version 420,2013-03-19 06:38:00,
2013-03-19 02:53:00,25.9,9.7,30.00,ESE,107,6.6,10.5,46,0.00,,,0.00,WSDL version 420,2013-03-19 06:53:00,
2013-03-19 03:08:00,24.9,12.8,30.00,East,93,3.2,9.2,56,0.00,,,0.00,WSDL version 420,2013-03-19 07:08:00,
2013-03-19 03:23:00,24.2,15.1,30.00,East,90,6.2,10.3,66,0.00,,,0.00,WSDL version 420,2013-03-19 07:23:00,
2013-03-19 03:38:00,23.4,17.2,29.97,East,96,3.4,12.5,73,0.00,,,0.00,WSDL version 420,2013-03-19 07:38:00,
2013-03-19 03:53:00,23.0,17.2,29.97,ENE,73,3.0,7.2,77,0.00,,,0.00,WSDL version 420,2013-03-19 07:53:00,
2013-03-19 04:07:00,22.8,18.1,29.97,NE,53,2.2,5.4,81,-99.99,,,-99.99,WSDL version 420,2013-03-19 08:07:00,
2013-03-19 04:22:00,22.8,18.2,29.97,ENE,71,2.2,2.9,80,0.00,,,0.00,WSDL version 420,2013-03-19 08:22:00,
2013-03-19 04:37:00,22.8,17.9,30.00,ENE,68,1.6,3.1,79,0.00,,,0.00,WSDL version 420,2013-03-19 08:37:00,
2013-03-19 04:52:00,22.7,17.8,29.97,ENE,68,1.2,2.9,79,-99.99,,,-99.99,WSDL version 420,2013-03-19 08:52:00,
2013-03-19 05:07:00,22.6,18.8,29.97,East,87,1.3,3.6,83,0.00,,,0.00,WSDL version 420,2013-03-19 09:07:00,
2013-03-19 05:22:00,22.6,18.6,29.94,ENE,68,1.9,3.4,83,0.00,,,0.00,WSDL version 420,2013-03-19 09:22:00,
2013-03-19 05:37:00,22.6,18.4,29.94,ENE,68,0.1,2.5,81,-99.99,,,-99.99,WSDL version 420,2013-03-19 09:37:00,
2013-03-19 05:52:00,22.6,18.3,29.91,East,90,1.4,2.5,81,0.00,,,0.00,WSDL version 420,2013-03-19 09:52:00,
2013-03-19 06:08:00,22.8,18.1,29.91,ESE,113,0.4,2.0,80,0.00,,,0.00,WSDL version 420,2013-03-19 10:08:00,
2013-03-19 06:23:00,22.8,18.5,29.91,ESE,113,1.1,2.9,81,0.00,,,0.00,WSDL version 420,2013-03-19 10:23:00,
2013-03-19 06:38:00,23.0,18.6,29.88,ESE,113,1.5,3.1,81,-99.99,,,-99.99,WSDL version 420,2013-03-19 10:38:00,
2013-03-19 06:53:00,23.2,19.4,29.91,ESE,113,1.9,3.8,83,0.00,,,0.00,WSDL version 420,2013-03-19 10:53:00,
2013-03-19 07:08:00,23.2,19.4,29.91,ESE,113,1.4,2.2,83,0.00,,,0.00,WSDL version 420,2013-03-19 11:08:00,
2013-03-19 07:23:00,23.4,19.5,29.91,ESE,113,0.3,2.5,83,0.00,,,0.00,WSDL version 420,2013-03-19 11:23:00,
2013-03-19 07:38:00,23.5,20.0,29.91,ESE,113,0.8,2.5,84,0.00,,,0.00,WSDL version 420,2013-03-19 11:38:00,
2013-03-19 07:53:00,23.7,21.1,29.88,ESE,113,1.9,3.4,89,0.00,,,0.00,WSDL version 420,2013-03-19 11:53:00,
2013-03-19 08:08:00,23.9,21.6,29.88,ESE,113,2.3,3.1,90,0.00,,,0.00,WSDL version 420,2013-03-19 12:08:00,
2013-03-19 08:23:00,24.4,22.2,29.85,ESE,113,2.3,3.4,90,0.00,,,0.00,WSDL version 420,2013-03-19 12:23:00,
2013-03-19 08:38:00,24.7,22.2,29.88,ESE,113,1.7,3.4,89,0.00,,,0.00,WSDL version 420,2013-03-19 12:38:00,
2013-03-19 08:52:00,25.1,22.3,29.85,ESE,113,1.5,2.9,88,0.00,,,0.00,WSDL version 420,2013-03-19 12:52:00,
2013-03-19 09:07:00,25.6,22.5,29.85,ESE,113,1.6,3.4,86,0.00,,,0.00,WSDL version 420,2013-03-19 13:07:00,
2013-03-19 09:22:00,26.2,22.5,29.85,ENE,71,2.6,4.3,83,0.00,,,0.00,WSDL version 420,2013-03-19 13:22:00,
2013-03-19 09:37:00,26.4,22.1,29.85,ESE,108,3.5,4.3,81,0.00,,,0.00,WSDL version 420,2013-03-19 13:37:00,
2013-03-19 09:52:00,26.8,21.8,29.85,NE,45,3.1,4.7,79,0.00,,,0.00,WSDL version 420,2013-03-19 13:52:00,
2013-03-19 10:08:00,27.2,22.0,29.83,East,86,2.9,5.8,78,0.00,,,0.00,WSDL version 420,2013-03-19 14:08:00,
2013-03-19 10:23:00,28.0,22.4,29.83,East,93,3.0,6.0,76,0.00,,,0.00,WSDL version 420,2013-03-19 14:23:00,
2013-03-19 10:38:00,28.5,22.0,29.83,East,86,4.9,7.8,73,0.00,,,0.00,WSDL version 420,2013-03-19 14:38:00,
2013-03-19 10:53:00,28.2,21.5,29.80,ENE,68,5.1,8.5,73,0.00,,,0.00,WSDL version 420,2013-03-19 14:53:00,
2013-03-19 11:39:00,29.2,21.9,29.77,NE,53,4.7,7.8,71,0.00,,,0.00,WSDL version 420,2013-03-19 15:39:00,
2013-03-19 11:54:00,28.6,21.9,29.80,NE,53,4.0,8.1,73,0.00,,,0.00,WSDL version 420,2013-03-19 15:54:00,
2013-03-19 12:09:00,28.0,21.8,29.80,East,84,6.2,10.1,75,0.00,,,0.00,WSDL version 420,2013-03-19 16:09:00,
2013-03-19 12:24:00,27.1,21.0,29.83,ENE,64,2.6,11.0,75,0.00,,,0.00,WSDL version 420,2013-03-19 16:24:00,
2013-03-19 12:38:00,27.1,21.1,29.80,ENE,61,4.4,8.1,75,0.00,,,0.00,WSDL version 420,2013-03-19 16:38:00,
2013-03-19 12:53:00,27.0,20.9,29.80,SE,139,2.9,8.5,75,0.00,,,0.00,WSDL version 420,2013-03-19 16:53:00,
2013-03-19 13:08:00,26.9,21.1,29.77,ENE,73,3.5,5.8,76,0.00,,,0.00,WSDL version 420,2013-03-19 17:08:00,
2013-03-19 13:23:00,26.6,21.3,29.80,East,83,6.5,10.7,78,0.00,,,0.00,WSDL version 420,2013-03-19 17:23:00,
2013-03-19 13:38:00,26.1,21.2,29.80,East,90,2.5,9.6,79,0.00,,,0.00,WSDL version 420,2013-03-19 17:38:00,
2013-03-19 13:53:00,26.1,21.5,29.77,East,83,4.1,6.0,81,0.00,,,0.00,WSDL version 420,2013-03-19 17:53:00,
2013-03-19 14:09:00,25.5,21.9,29.77,ENE,64,4.2,10.3,84,0.00,,,0.00,WSDL version 420,2013-03-19 18:09:00,
2013-03-19 14:24:00,25.2,22.3,29.77,ENE,63,4.7,8.5,88,0.00,,,0.00,WSDL version 420,2013-03-19 18:24:00,
2013-03-19 14:39:00,24.6,22.8,29.74,NE,48,5.5,9.6,92,0.00,,,0.00,WSDL version 420,2013-03-19 18:39:00,
2013-03-19 14:54:00,24.1,22.7,29.74,ENE,65,7.0,13.4,93,0.00,,,0.00,WSDL version 420,2013-03-19 18:54:00,
2013-03-19 15:09:00,23.5,22.6,29.74,ENE,76,5.1,11.0,96,0.00,,,0.00,WSDL version 420,2013-03-19 19:09:00,
2013-03-19 15:24:00,23.4,22.6,29.74,ENE,73,6.5,12.1,97,0.00,,,0.00,WSDL version 420,2013-03-19 19:24:00,
2013-03-19 15:39:00,23.0,22.5,29.71,NE,56,5.7,12.8,98,0.00,,,0.00,WSDL version 420,2013-03-19 19:39:00,
2013-03-19 15:54:00,22.9,22.5,29.68,ENE,68,7.0,13.2,99,0.00,,,0.00,WSDL version 420,2013-03-19 19:54:00,
2013-03-19 16:09:00,23.0,22.7,29.68,ENE,71,6.8,12.3,98,0.00,,,0.00,WSDL version 420,2013-03-19 20:09:00,
2013-03-19 16:24:00,22.9,22.4,29.68,NE,55,5.1,12.3,98,0.00,,,0.00,WSDL version 420,2013-03-19 20:24:00,
2013-03-19 16:39:00,23.0,22.4,29.68,ENE,68,4.9,8.9,97,0.00,,,0.00,WSDL version 420,2013-03-19 20:39:00,
2013-03-19 16:53:00,23.0,22.0,29.68,NE,56,3.1,11.9,94,0.00,,,0.00,WSDL version 420,2013-03-19 20:53:00,
2013-03-19 17:08:00,23.0,22.0,29.68,East,90,2.9,9.6,96,0.00,,,0.00,WSDL version 420,2013-03-19 21:08:00,
2013-03-19 17:23:00,22.8,21.7,29.68,ENE,71,5.1,8.7,94,0.00,,,0.00,WSDL version 420,2013-03-19 21:23:00,
2013-03-19 17:38:00,22.8,21.4,29.68,ENE,78,5.1,12.3,93,0.00,,,0.00,WSDL version 420,2013-03-19 21:38:00,
2013-03-19 17:53:00,22.6,20.9,29.68,NNE,23,6.2,8.5,92,0.00,,,0.00,WSDL version 420,2013-03-19 21:53:00,
2013-03-19 18:09:00,22.3,20.6,29.68,East,83,3.9,8.5,92,0.00,,,0.00,WSDL version 420,2013-03-19 22:09:00,
2013-03-19 18:24:00,21.9,20.2,29.68,NNE,26,4.4,7.4,92,0.00,,,0.00,WSDL version 420,2013-03-19 22:24:00,
2013-03-19 18:39:00,21.9,20.2,29.68,ENE,59,2.7,10.1,92,0.00,,,0.00,WSDL version 420,2013-03-19 22:39:00,
2013-03-19 18:54:00,21.7,20.0,29.65,NE,34,3.5,7.2,92,0.00,,,0.00,WSDL version 420,2013-03-19 22:54:00,
2013-03-19 19:09:00,21.6,19.6,29.68,NNE,16,5.6,9.2,91,0.00,,,0.00,WSDL version 420,2013-03-19 23:09:00,
2013-03-19 19:24:00,21.6,19.6,29.68,NE,51,2.4,10.3,91,0.00,,,0.00,WSDL version 420,2013-03-19 23:24:00,
2013-03-19 19:39:00,21.4,19.4,29.68,NE,39,2.3,4.0,91,0.00,,,0.00,WSDL version 420,2013-03-19 23:39:00,
2013-03-19 19:54:00,21.0,19.1,29.68,NNW,330,3.4,5.6,91,0.00,,,0.00,WSDL version 420,2013-03-19 23:54:00,
2013-03-19 20:09:00,20.7,18.7,29.65,North,357,2.2,4.0,91,0.00,,,0.00,WSDL version 420,2013-03-20 00:09:00,
2013-03-19 20:24:00,20.5,18.5,29.68,North,351,2.3,5.6,91,0.00,,,0.00,WSDL version 420,2013-03-20 00:24:00,
2013-03-19 20:38:00,20.5,18.5,29.68,North,3,1.7,4.0,91,0.00,,,0.00,WSDL version 420,2013-03-20 00:38:00,
2013-03-19 20:53:00,20.3,18.4,29.68,North,349,2.8,4.3,91,0.00,,,0.00,WSDL version 420,2013-03-20 00:53:00,
2013-03-19 21:08:00,20.1,18.2,29.68,NNW,332,3.5,6.5,91,0.00,,,0.00,WSDL version 420,2013-03-20 01:08:00,
2013-03-19 21:23:00,19.9,18.0,29.68,NNW,338,2.8,5.8,92,0.00,,,0.00,WSDL version 420,2013-03-20 01:23:00,
2013-03-19 21:38:00,19.8,17.8,29.68,North,357,2.3,6.3,91,0.00,,,0.00,WSDL version 420,2013-03-20 01:38:00,
2013-03-19 21:53:00,19.6,17.7,29.68,North,3,1.8,5.4,91,0.00,,,0.00,WSDL version 420,2013-03-20 01:53:00,
2013-03-19 22:09:00,19.6,17.7,29.68,NW,323,3.2,4.3,91,0.00,,,0.00,WSDL version 420,2013-03-20 02:09:00,
2013-03-19 22:24:00,19.6,17.7,29.68,North,349,2.1,4.3,91,0.00,,,0.00,WSDL version 420,2013-03-20 02:24:00,
2013-03-19 22:39:00,19.4,17.6,29.68,NW,326,2.1,6.3,91,0.00,,,0.00,WSDL version 420,2013-03-20 02:39:00,
2013-03-19 22:54:00,19.4,17.7,29.68,North,3,3.2,7.6,92,0.00,,,0.00,WSDL version 420,2013-03-20 02:54:00,
2013-03-19 23:09:00,19.3,17.6,29.68,NNW,331,4.1,7.2,92,0.00,,,0.00,WSDL version 420,2013-03-20 03:09:00,
2013-03-19 23:24:00,19.2,17.5,29.68,NNW,344,2.3,5.8,92,0.00,,,0.00,WSDL version 420,2013-03-20 03:24:00,
2013-03-19 23:39:00,19.2,17.6,29.65,North,349,3.0,4.9,93,0.00,,,0.00,WSDL version 420,2013-03-20 03:39:00,
2013-03-19 23:54:00,19.2,17.5,29.65,NW,326,2.5,3.8,92,0.00,,,0.00,WSDL version 420,2013-03-20 03:54:00,